#timestamp,LO_Frequency,Hit,StdDev 
1639731615.8,286046998.2,N
1639731635.7,286046998.5,N
1639731655.5,286046998.1,N
1639731675.4,286047000.4,N
1639731695.2,286047000.8,N
1639731715.0,286046998.3,N
1639731715.9,286046998.3,N
1639731735.8,286047001.2,N
1639731755.6,286046998.3,N
1639731775.5,286047000.3,N
1639731795.3,286047000.8,N
1639731815.1,286047000.5,N
1639731835.9,286047000.4,N
1639731855.7,286046999.7,N
1639731875.6,286047002.1,N
1639731895.4,286047002.8,N
1639731915.2,286047002.3,N
1639731935.1,286047002.3,N
1639731936.0,286047002.3,N
1639731955.8,286047002.7,N
1639731975.6,286047000.5,N
1639731995.5,286047000.9,N
1639732015.3,286046998.7,N
1639732035.2,286046996.8,N
1639732055.9,286046996.9,N
1639732075.7,286046999.3,N
1639732095.6,286046999.2,N
1639732115.4,286046999.5,N
1639732135.2,286046996.8,N
1639732155.1,286046999.4,N
1639732156.0,286046999.4,N
1639732175.8,286047000.9,N
1639732195.7,286047002.3,N
1639732215.5,286047002.6,N
1639732235.3,286047002.4,N
1639732255.2,286047002.3,N
1639732275.0,286046999.9,N
1639732275.9,286046999.9,N
1639732295.7,286047002.7,N
1639732315.6,286047002.7,N
1639732335.4,286047000.9,N
1639732355.3,286046998.3,N
1639732375.1,286047000.1,N
1639732376.0,286047000.1,N
1639732395.8,286047002.4,N
1639732415.7,286047002.8,N
1639732435.5,286047004.1,N
1639732455.4,286047006.1,Y
1639732475.2,286047013.9,P
1639732495.0,286047012.7,N
1639732495.9,286047012.7,N
1639732515.8,286047008.1,N
1639732535.6,286047008.4,N
1639732555.5,286047006.6,N
1639732575.3,286047006.0,N
1639732595.1,286047003.1,N
1639732615.9,286047002.9,N
1639732635.7,286047003.3,N
1639732655.6,286047005.5,N
1639732675.4,286047002.9,N
1639732695.2,286047005.3,N
1639732715.1,286047002.9,N
1639732716.0,286047002.9,N
1639732735.8,286047003.1,N
1639732755.6,286047003.8,N
1639732775.5,286047003.8,N
1639732795.3,286047001.3,N
1639732815.2,286047002.0,N
1639732835.9,286047001.6,N
1639732855.7,286046999.7,N
1639732875.6,286047002.8,N
1639732895.4,286047002.0,N
1639732915.2,286047001.5,N
1639732935.1,286046999.8,N
1639732936.0,286046999.8,N
1639732955.8,286047002.6,N
1639732975.7,286047002.6,N
1639732995.5,286047002.5,N
1639733015.3,286047000.4,N
1639733035.2,286046998.4,N
1639733055.0,286047002.4,N
1639733055.9,286047002.4,N
1639733075.8,286047000.2,N
1639733095.6,286047000.3,N
1639733115.4,286047000.9,N
1639733135.3,286047000.0,N
1639733155.1,286047000.4,N
1639733175.8,286046998.5,N
1639733195.7,286047001.2,N
1639733215.5,286047001.2,N
1639733235.4,286047000.9,N
1639733255.2,286047001.0,N
1639733275.0,286047001.1,N
1639733275.9,286047001.1,N
1639733295.8,286046998.8,N
1639733315.6,286046998.7,N
1639733335.4,286047000.9,N
1639733355.3,286047002.7,N
1639733375.1,286046999.7,N
1639733395.9,286047000.4,N
1639733415.7,286047001.0,N
1639733435.5,286046998.7,N
1639733455.4,286046998.3,N
1639733475.2,286046998.5,N
1639733495.1,286047000.3,N
1639733496.0,286047000.3,N
1639733515.8,286046998.2,N
1639733535.6,286046998.1,N
1639733555.5,286047001.1,N
1639733575.3,286046999.8,N
1639733595.2,286047000.3,N
1639733615.0,286047001.5,N
1639733615.9,286047001.5,N
1639733635.7,286047000.0,N
1639733655.6,286046999.8,N
1639733675.4,286047002.1,N
1639733695.3,286047004.1,Y
1639733715.1,286046999.8,P
1639733735.8,286047002.8,P
1639733755.7,286047002.0,N
1639733775.5,286047001.5,N
1639733795.4,286047001.5,N
1639733815.2,286047004.3,Y
1639733835.0,286047000.2,P
1639733835.9,286047000.2,N
1639733855.8,286046998.8,N
1639733875.6,286046996.6,Y
1639733895.5,286046996.5,P
1639733915.3,286046998.8,N
1639733935.1,286046996.9,N
1639733955.9,286046996.5,N
1639733975.7,286046999.2,N
1639733995.5,286046996.9,N
1639734015.4,286046999.1,N
1639734035.2,286046998.9,N
1639734055.1,286047000.8,N
1639734056.0,286047000.8,N
1639734075.8,286046998.1,N
1639734095.6,286046998.3,N
1639734115.5,286046998.6,N
1639734135.3,286046999.1,N
1639734155.1,286046997.4,N
1639734175.9,286046997.4,N
1639734195.7,286046997.1,N
1639734215.6,286046999.3,N
1639734235.4,286046999.2,N
1639734255.2,286046998.6,N
1639734275.1,286046998.7,N
1639734276.0,286046998.7,N
1639734295.8,286046999.4,N
1639734315.6,286046997.1,N
1639734335.5,286046997.1,N
1639734355.3,286046999.4,N
1639734375.2,286046999.3,N
1639734395.9,286046999.2,N
1639734415.7,286046999.2,N
1639734435.6,286046997.2,N
1639734455.4,286046997.3,N
1639734475.2,286046997.4,N
1639734495.1,286046997.8,N
1639734496.0,286046997.8,N
1639734515.8,286046997.3,N
1639734535.7,286046995.8,Y
1639734555.5,286046997.5,P
1639734575.3,286046997.5,P
1639734595.2,286046999.4,N
1639734615.0,286047001.1,N
1639734615.9,286047001.1,N
1639734635.8,286046998.6,N
1639734655.6,286046998.2,N
1639734675.4,286046997.1,N
1639734695.3,286046997.0,N
1639734715.1,286046996.5,N
1639734735.9,286046997.1,N
1639734755.7,286046999.2,N
1639734775.5,286046998.6,N
1639734795.4,286046998.7,N
1639734815.2,286046999.1,N
1639734835.0,286046999.6,N
1639734835.9,286046999.6,N
1639734855.8,286046999.0,N
1639734875.6,286046997.1,N
1639734895.5,286046997.5,N
1639734915.3,286046996.7,N
1639734935.1,286046997.4,N
1639734955.9,286046996.5,N
1639734975.7,286046999.1,N
1639734995.5,286046999.2,N
1639735015.4,286046999.5,N
1639735035.2,286046997.0,N
1639735055.1,286046997.2,N
1639735056.0,286046997.2,N
1639735075.8,286046997.5,N
1639735095.6,286046999.1,N
1639735115.5,286046999.0,N
1639735135.3,286046996.6,N
1639735155.2,286046999.0,N
1639735175.9,286046998.8,N
1639735195.7,286047000.7,N
